Weather Roundup
Issued by NWS Chicago, IL

Home | Current Version | Previous Version | Text Only | Print | Product List | Glossary On
Versions: 1 2 3 4 5 6 7 8 9 10 11 12 13 14 15 16 17 18 19 20 21 22 23 24 25 26 27 28 29 30 31 32 33 34 35 36 37 38 39 40 41 42 43 44 45 46 47 48 49 50
000
NZUS59 KLOT 051812
HRRLOT

CHICAGO AREA WEATHER ROUNDUP
NATIONAL WEATHER SERVICE CHICAGO/ROMEOVILLE IL
1200 PM CST MON DEC 05 2016

NOTE: "FAIR" INDICATES FEW OR NO CLOUDS BELOW 12,000 FEET WITH NO
SIGNIFICANT WEATHER AND/OR OBSTRUCTIONS TO VISIBILITY.

* THESE STATIONS ARE NOT UNDER NWS QUALITY CONTROL. THEY ALSO MAY NOT
  REPORT WEATHER SUCH AS PRECIPITATION OR FOG.

ILZ005-006-012>014-019>023-051900-
NORTHEAST ILLINOIS

CITY           SKY/WX    TMP DP  RH WIND       PRES   REMARKS
OHARE          CLOUDY    32  31  96 S13       30.02F FOG     WCI  22
6HR MIN TEMP:  32; 6HR MAX TEMP:  33;

MIDWAY         CLOUDY    33  29  85 S14       30.04S WCI  23
6HR MIN TEMP:  33; 6HR MAX TEMP:  34;

AURORA         CLOUDY    32  30  92 S15       30.03S FOG     WCI  22
6HR MIN TEMP:  32; 6HR MAX TEMP:  33;

LANSING*       CLOUDY    32  32 100 SW14      30.07S WCI  22
JOLIET*        CLOUDY    33  33  96 S8        30.05S FOG     WCI  27
WAUKEGAN       CLOUDY    33  32  96 S13       29.99F FOG     WCI  24
6HR MIN TEMP:  32; 6HR MAX TEMP:  33;

DUPAGE AIRPORT FOG       32  29  88 S16       30.01F VSB 1   WCI  21
6HR MIN TEMP:  31; 6HR MAX TEMP:  33;

WHEELING       CLOUDY    33  31  92 S13G20    30.03F FOG     WCI  24
6HR MIN TEMP:  32; 6HR MAX TEMP:  33;

KANKAKEE*      CLOUDY    33  31  92 S10       30.07F WCI  25
MORRIS*        CLOUDY    32  31  96 S10       30.04S FOG     WCI  24
LEWIS AIRPORT* CLOUDY    32  32 100 S10       30.04S FOG     WCI  24
NORTHERLY ISL    N/A     33  30  89 S12         N/A  WCI  24
$$

WIZ051-052-058>065-066-070>072-051900-
SOUTHEAST WISCONSIN

CITY           SKY/WX    TMP DP  RH WIND       PRES   REMARKS
MILWAUKEE      CLOUDY    34  31  88 S12       29.98S FOG     WCI  25
6HR MIN TEMP:  34; 6HR MAX TEMP:  35;

KENOSHA*       CLOUDY    33  31  92 S12       29.99F FOG     WCI  24
RACINE*        CLOUDY    33  31  92 S8        30.00F FOG     WCI  26
BURLINGTON     CLOUDY    32  32  99 SW13      29.98S FOG     WCI  22
WAUKESHA       CLOUDY    30  30 100 S7        29.97F FOG     WCI  23
WEST BEND      CLOUDY    32  32 100 SW7       29.95S WCI  26
$$

INZ001>003-010>013-019-020-051900-
NORTHWEST INDIANA

CITY           SKY/WX    TMP DP  RH WIND       PRES   REMARKS
GARY*          CLOUDY    34  32  93 S12       30.07  WCI  25
MICHIGAN CITY* NOT AVBL
RENSSELAER*    NOT AVBL
VALPARAISO     CLOUDY    33  30  88 S10       30.07S WCI  25
$$

LMZ740>746-051900-
SOUTHERN LAKE MICHIGAN

STATION/POSITION TIME  SKY/WX   TEMP WIND        PRES    VSBY
                                AIR  DIR/SP/G
                 (UTC)          (F)  (DEG/KT/KT) (MB)    (MI)
HARRISON CRIB    1740            33  180/ 18/ 21   N/A
BURNHAM HARBOR   1800            33  190/ 11/ 14   N/A
CALUMET HARBOR   1748            32  170/ 11/ 18 1017.1R
BURNS HARBOR     1740            33  190/ 12/ 15 1018.6S
MICHIGAN CITY    NOT AVBL
$$

ABBREVIATIONS USED IN REMARKS
   TC - TEMPERATURE IN CELSIUS
  WCI - WIND CHILL INDEX
   HX - HEAT INDEX
  VSB - VISIBILITY
$$



USA.gov is the U.S. government's official web portal to all federal, state and local government web resources and services.